Regional Weather Roundup
Issued by NWS

Home | Current Version | Previous Version | Graphics & Text | Print | Product List | Glossary On
Versions: 1 2 3 4 5 6 7 8 9 10 11 12 13 14 15 16 17 18 19 20 21 22 23 24 25 26 27 28 29 30 31 32 33 34 35 36 37 38 39 40 41 42 43 44 45 46 47 48 49 50
503
ASUS45 KBOI 031910
RWRID

IDAHO REGIONAL WEATHER ROUNDUP
NATIONAL WEATHER SERVICE BOISE ID
1200 PM MST SAT DEC 03 2016

NOTE: "FAIR" INDICATES FEW OR NO CLOUDS BELOW 12000 FEET
WITH NO SIGNIFICANT WEATHER AND/OR OBSTRUCTIONS TO VISIBILITY

IDZ012-014-032000-
SOUTHWEST IDAHO


CITY           SKY/WX    TMP DP  RH WIND       PRES   REMARKS
BOISE          CLOUDY    40  27  59 CALM      30.29S
CALDWELL       PTSUNNY   40  25  55 CALM      30.31S
MOUNTAIN HOME  PTSUNNY   40  26  56 N3        30.28S
$$

IDZ016-017-032000-
SOUTHCENTRAL IDAHO


CITY           SKY/WX    TMP DP  RH WIND       PRES   REMARKS
BURLEY         CLOUDY    38  24  57 W21       30.23F WCI  28
JEROME         CLOUDY    37  24  59 SW13      30.25F WCI  29
TWIN FALLS     CLOUDY    39  23  52 SW17      30.25F WCI  30
$$

IDZ019>023-032000-
SOUTHEAST IDAHO


CITY           SKY/WX    TMP DP  RH WIND       PRES   REMARKS
IDAHO FALLS    PTSUNNY   30  20  66 SW13      30.21  WCI  20
POCATELLO      CLOUDY    32  21  64 S13       30.23F WCI  22
REXBURG        CLOUDY    25  20  81 W12       30.19F WCI  14
$$

IDZ006-010-011-018-031-032-032000-
CENTRAL IDAHO MOUNTAINS


CITY           SKY/WX    TMP DP  RH WIND       PRES   REMARKS
MCCALL         CLOUDY    28  22  78 CALM      30.19S
HAILEY         MOSUNNY   27  21  80 SE6       30.19F WCI  20
STANLEY          N/A     30  19  63 N8G22     30.17S WCI  22
SALMON         CLOUDY    30  25  80 NW5       30.14S WCI  25
CHALLIS        MOSUNNY   31  22  69 CALM      30.13F
$$

IDZ002-004-006-007-026-032000-
NORTHERN IDAHO


CITY           SKY/WX    TMP DP  RH WIND       PRES   REMARKS
LEWISTON       PTSUNNY   46  35  65 E5        30.20F
LOWELL           N/A     35  33  92 CALM      30.25F
COEUR D`ALENE  PTSUNNY   40  34  79 S9        30.14F WCI  34
MULLAN PASS    LGT SNOW  24  22  91 VRB7      30.01F FOG     WCI  16
$$




USA.gov is the U.S. government's official web portal to all federal, state and local government web resources and services.